GFSNW_prec_kuchsnow_276.txt.gz
Snowfall_Accumulation
0.0 0.0 0.0 0.0 0.0 0.0 0.0 0.0 5.7 0.0 0.0 2.0 4.2 4.1 1.1 0.0 0.0 0.0 0.0 0.0 0.0 0.0 0.0 0.0 0.0 0.0 0.0 0.0 0.0 0.0 0.0 0.3 1.2 0.2 0.0 0.0 0.0 0.0 0.0 3.4 1.3 2.6 4.8 3.2
0.0 0.0 0.0 0.0 0.0 0.0 0.0 0.0 0.4 0.0 0.0 6.8 3.3 0.0 0.0 0.0 0.0 0.0 0.0 0.0 0.0 0.0 0.0 0.0 0.0 0.0 0.0 0.0 0.0 0.0 0.0 0.7 1.0 1.4 0.3 0.0 0.4 0.0 0.0 0.2 0.8 3.4 5.5 0.5
0.0 0.0 0.0 0.0 0.0 0.0 0.0 0.0 5.6 0.0 0.0 0.0 2.1 3.0 1.1 0.7 0.0 0.0 0.0 0.0 0.0 0.0 0.0 0.0 0.0 0.0 0.0 0.0 0.0 0.0 0.0 0.6 0.9 1.2 2.0 1.9 2.5 0.2 0.1 1.2 6.7 0.6 0.5 0.3
0.0 0.0 0.0 0.0 0.0 0.0 0.0 0.0 1.8 0.0 5.1 0.7 2.4 2.8 2.1 1.3 0.9 0.0 0.0 0.0 0.0 0.0 0.2 0.0 0.0 0.0 0.0 0.0 0.0 0.0 0.0 2.0 0.3 0.4 0.3 2.6 1.7 0.5 0.4 2.7 0.4 2.1 0.0 0.0
0.0 0.0 0.0 0.0 0.0 0.0 0.0 0.6 0.7 0.0 1.1 0.4 1.0 1.5 1.4 0.8 1.1 1.2 0.5 0.4 0.2 0.1 0.4 0.2 0.0 0.0 0.0 0.0 0.0 0.0 0.0 2.8 2.2 2.7 0.7 1.6 1.9 0.2 0.2 0.2 0.0 0.0 0.0 0.0
0.0 0.0 0.0 0.0 0.0 0.0 0.0 0.0 0.0 1.5 1.6 0.4 0.8 0.8 0.2 0.8 0.4 0.1 0.0 0.4 0.7 0.2 0.0 0.0 0.0 0.0 0.0 0.0 0.0 0.0 0.6 3.1 4.9 5.0 0.2 0.7 1.7 0.2 0.1 0.0 0.0 0.0 0.1 0.0
0.0 0.0 0.0 0.0 0.0 0.0 0.0 0.0 0.0 6.2 4.8 0.4 0.3 0.0 0.0 0.4 0.0 1.0 0.0 0.0 0.5 0.0 0.0 0.0 0.0 0.0 0.0 0.0 0.0 0.0 0.0 2.7 4.8 8.2 2.1 5.2 0.0 0.0 0.0 0.0 0.1 0.2 0.1 0.0
0.0 0.0 0.0 0.0 0.0 0.0 0.0 0.0 0.0 6.2 6.4 0.2 0.1 0.0 0.1 0.0 0.0 0.2 0.1 0.0 0.0 0.0 0.0 0.3 1.3 1.2 0.9 0.4 0.0 0.0 0.0 0.3 3.0 4.6 2.4 0.0 0.0 0.0 0.0 0.0 0.3 0.0 0.1 0.0
0.0 0.0 0.0 0.0 0.0 0.0 0.0 0.0 0.0 2.8 8.3 1.5 0.0 0.0 0.0 0.8 0.8 0.1 0.0 0.0 0.0 0.0 0.3 1.2 2.7 0.8 0.3 0.0 0.0 0.0 0.0 0.0 1.4 2.4 4.5 0.7 0.0 0.0 0.0 0.0 0.6 0.0 0.0 0.0
0.0 0.0 0.0 0.0 0.0 0.0 0.0 0.0 0.0 0.0 10.7 0.2 0.0 0.5 0.2 0.0 0.3 1.0 0.0 0.0 0.0 0.0 1.1 4.0 3.0 0.6 0.0 0.1 0.0 0.1 0.1 0.6 3.1 1.8 4.5 0.0 0.0 0.0 0.0 0.1 0.4 0.0 0.0 0.0
0.0 0.0 0.0 0.0 0.0 0.0 0.0 0.0 0.0 0.0 8.3 0.4 0.0 0.0 0.1 0.1 0.1 2.4 0.1 0.7 0.0 1.2 3.1 2.7 0.3 0.8 0.0 0.0 0.0 0.0 0.0 0.5 0.7 2.4 6.2 1.2 0.0 0.0 0.1 0.0 0.0 0.0 0.0 0.0
0.0 0.0 0.0 0.0 0.0 0.0 0.0 0.0 0.0 0.0 0.9 0.8 0.0 0.0 0.0 0.0 0.0 0.0 0.7 0.7 0.1 1.4 3.5 2.2 2.8 3.3 1.8 0.6 0.5 0.0 0.0 0.0 0.2 0.1 0.2 0.0 0.0 0.0 0.0 0.0 0.0 0.0 0.0 0.0
0.0 0.0 0.0 0.0 0.0 0.0 0.0 0.0 0.0 0.0 5.2 2.5 0.8 0.2 0.0 0.0 0.0 0.0 1.8 0.1 0.0 0.0 0.0 2.2 3.5 4.8 1.3 2.1 0.8 0.0 0.0 0.0 0.0 0.0 0.0 0.0 0.0 0.0 0.0 0.0 0.0 0.0 0.0 0.0
0.0 0.0 0.0 0.0 0.0 0.0 0.0 0.0 0.0 0.0 4.3 15.0 1.2 0.0 0.0 0.0 0.0 0.0 0.0 0.0 0.0 0.0 0.4 4.0 6.1 4.5 0.4 0.4 0.2 0.0 0.1 0.0 0.0 0.0 0.0 0.0 0.0 0.0 0.0 0.0 0.0 0.0 0.0 0.0
0.0 0.0 0.0 0.0 0.0 0.0 0.0 0.0 0.0 0.0 1.0 14.6 3.9 0.4 0.1 0.0 0.0 0.0 0.0 0.0 0.0 0.5 2.3 6.0 5.4 0.9 1.5 1.7 1.5 0.4 0.0 0.0 0.1 0.1 0.0 0.0 0.0 0.0 0.0 0.0 0.2 0.1 0.0 0.0
0.0 0.0 0.0 0.0 0.0 0.0 0.0 2.5 0.0 0.0 0.0 8.4 18.2 0.4 0.3 0.0 0.0 0.0 0.0 0.0 0.0 1.3 2.5 4.7 0.8 0.1 0.7 6.1 2.3 0.0 0.0 0.0 0.0 0.0 0.0 0.0 0.0 0.1 0.0 0.7 0.4 0.2 0.1 0.8
0.0 0.0 0.0 0.0 0.0 0.0 0.2 3.4 0.0 0.0 0.0 16.9 34.6 17.4 2.7 0.9 0.8 1.4 1.6 1.2 1.3 2.8 6.2 6.0 2.5 1.6 2.4 6.9 2.4 0.0 0.0 0.0 0.0 0.0 0.0 1.0 0.3 0.0 1.1 0.6 0.3 1.6 1.4 0.8
0.0 0.0 0.0 0.0 0.0 0.0 0.0 0.0 0.0 0.0 1.7 13.1 60.2 36.1 10.2 1.3 2.3 5.7 4.8 5.8 4.2 9.5 6.9 5.6 2.7 3.2 7.1 11.4 1.2 0.2 0.3 0.8 1.7 1.8 1.2 2.1 2.0 1.5 2.0 0.4 2.1 1.8 1.8 1.5
0.0 0.0 0.0 0.0 0.0 0.1 0.0 0.0 0.0 0.0 0.4 54.0 41.5 26.0 12.0 3.0 2.7 4.0 7.6 8.4 20.3 13.9 14.5 5.0 2.5 11.3 19.3 7.9 2.2 0.7 2.0 3.4 2.7 4.1 3.4 2.3 1.5 2.3 2.4 2.0 1.6 1.8 2.8 2.8
0.0 0.0 1.4 11.2 2.1 0.0 0.0 0.0 8.3 20.9 29.9 30.1 27.8 11.1 11.3 4.9 6.3 11.3 16.2 19.3 25.0 30.9 15.6 9.7 19.3 15.6 8.7 4.9 5.5 5.5 5.8 5.5 5.5 8.2 7.0 4.6 5.1 3.9 4.3 4.0 4.1 3.6 3.4 3.2
1.8 13.1 15.5 1.7 0.0 0.8 7.8 34.9 39.1 32.0 34.2 15.4 11.0 7.0 9.3 5.7 16.6 19.5 18.8 28.0 25.2 31.1 15.8 15.9 19.9 16.7 8.0 6.9 9.3 9.3 8.6 7.9 7.7 6.8 6.9 7.9 8.7 8.7 6.7 5.9 6.3 4.5 4.1 3.9
1.8 1.7 3.2 5.5 20.5 35.4 44.9 42.5 21.3 16.2 14.9 12.4 9.8 6.6 7.4 11.8 9.3 21.3 24.2 25.2 22.4 23.6 9.2 20.0 18.1 9.3 7.4 10.1 10.7 10.5 9.7 8.9 8.5 7.8 8.2 7.2 6.8 6.7 6.2 5.9 6.0 4.7 3.8 2.9
2.3 18.9 35.0 33.8 37.7 54.3 40.9 25.0 16.4 15.3 9.9 10.6 8.9 11.5 11.7 14.4 16.1 25.7 24.5 29.4 20.9 10.3 17.7 14.5 10.7 7.4 8.4 9.9 11.2 11.0 9.9 8.4 7.5 7.4 5.5 5.0 4.9 4.4 3.6 4.0 1.7 1.4 1.5 1.8
21.8 39.3 47.0 31.2 29.7 16.3 13.7 10.6 9.8 9.1 10.9 12.7 14.1 15.5 15.9 13.4 22.4 19.2 27.6 17.3 10.9 23.0 18.5 13.3 9.9 9.6 8.7 7.7 7.9 8.2 8.5 8.0 7.1 8.4 7.6 5.9 4.5 3.1 2.3 2.5 2.9 3.0 2.7 2.3
39.7 31.2 30.0 17.3 9.8 8.3 10.0 9.7 9.7 11.2 13.1 17.4 19.3 18.6 16.7 21.4 27.2 17.6 12.8 20.8 20.7 17.2 14.6 12.4 11.9 11.3 10.3 9.9 8.9 7.6 7.2 7.2 7.0 6.1 6.5 7.0 4.2 2.7 2.1 3.1 3.1 3.0 3.0 2.4
34.1 27.7 15.4 6.5 5.8 6.3 4.9 7.6 8.8 9.4 12.5 12.8 16.9 18.8 21.9 21.5 18.6 19.8 16.2 15.9 16.3 16.2 15.8 14.7 12.9 12.4 11.2 11.2 10.1 9.5 9.1 9.1 9.3 8.3 8.9 7.4 7.9 9.4 9.1 5.9 5.0 4.5 4.3 3.6
38.3 16.5 8.8 8.6 5.4 5.5 5.7 6.1 6.2 5.3 8.9 12.1 13.8 21.8 16.6 15.6 18.2 15.4 11.9 15.9 16.4 14.2 11.9 10.5 10.5 9.6 9.5 9.3 8.1 7.5 6.1 6.2 6.9 8.2 9.6 11.2 11.4 10.9 9.4 9.9 11.6 10.2 9.7 8.8

GFSNW_prec_kuchsnow_282.txt.gz
Snowfall_Accumulation
0.0 0.0 0.0 0.0 0.0 0.0 0.0 0.0 5.7 0.0 0.0 2.0 4.3 5.8 2.8 0.0 0.0 0.0 0.2 0.1 0.0 0.0 0.3 0.2 0.0 0.0 0.0 0.0 0.0 0.0 0.0 0.3 1.2 0.2 0.0 0.0 0.0 0.0 0.0 3.4 1.3 2.6 4.8 3.2
0.0 0.0 0.0 0.0 0.0 0.0 0.0 0.4 0.4 0.0 0.0 7.5 3.5 0.4 0.0 0.9 1.0 0.4 1.4 1.5 1.0 1.3 0.4 0.6 0.0 0.0 0.0 0.0 0.0 0.0 0.0 0.7 1.0 1.4 0.3 0.0 0.4 0.0 0.0 0.2 0.8 3.4 5.5 0.5
0.0 0.0 0.0 0.0 0.0 0.0 0.0 0.9 6.0 0.0 0.0 0.0 2.8 4.1 1.1 0.7 0.0 1.1 1.1 1.4 0.0 2.2 1.0 0.0 0.8 0.0 0.0 0.0 0.0 0.0 0.0 0.6 0.9 1.2 2.0 1.9 2.5 0.2 0.1 1.2 6.7 0.6 0.5 0.3
0.0 0.0 0.0 0.0 0.0 0.0 0.0 1.7 2.2 0.0 5.1 0.7 2.4 2.8 2.7 1.6 2.2 0.2 0.9 1.8 1.6 3.4 3.9 1.1 1.0 0.4 0.2 0.0 0.0 0.0 0.0 2.1 0.3 0.4 0.3 2.6 1.7 0.5 0.4 2.7 0.4 2.1 0.0 0.0
0.0 0.0 0.0 0.0 0.0 0.0 0.0 2.8 1.2 0.0 1.1 0.4 1.0 1.5 1.4 0.8 1.1 1.5 1.8 2.0 1.1 0.9 3.0 2.5 2.9 2.1 0.0 0.6 0.0 0.0 0.0 3.2 2.2 2.7 0.7 1.6 1.9 0.2 0.2 0.2 0.0 0.0 0.0 0.0
0.0 0.0 0.0 0.0 0.0 0.0 0.0 0.8 0.0 2.0 1.6 0.4 0.8 0.8 0.2 1.0 0.4 0.1 0.0 0.5 0.7 0.5 0.2 0.0 0.0 0.0 0.0 0.4 0.6 0.4 0.9 3.1 4.9 5.0 0.2 0.7 1.7 0.2 0.1 0.0 0.0 0.0 0.1 0.0
0.0 0.0 0.0 0.0 0.0 0.0 0.0 0.0 1.0 8.6 5.7 0.4 0.3 0.0 0.0 0.4 0.0 1.0 0.0 0.0 0.5 0.0 0.0 0.0 0.0 0.0 0.0 0.0 0.0 0.0 0.6 3.1 4.8 9.3 2.1 6.5 0.0 0.0 0.0 0.0 0.1 0.2 0.1 0.0
0.0 0.0 0.0 0.0 0.0 0.0 0.0 0.0 1.4 7.8 7.2 0.2 0.1 0.0 0.1 0.0 0.0 0.2 0.1 0.0 0.0 0.0 0.0 0.8 2.0 1.6 1.2 0.6 0.0 0.0 0.0 0.5 4.6 6.4 2.4 0.0 0.0 0.0 0.0 0.0 0.3 0.0 0.1 0.0
0.0 0.0 0.0 0.0 0.0 0.0 0.0 0.0 0.0 4.1 10.5 1.5 0.0 0.0 0.0 0.8 0.8 0.1 0.0 0.0 0.0 0.0 0.6 2.8 6.3 2.3 0.5 1.7 0.6 0.0 0.0 0.0 2.5 4.3 6.5 2.3 0.0 0.0 0.0 0.0 0.6 0.0 0.0 0.0
0.0 0.0 0.0 0.0 0.0 0.0 0.0 0.0 0.0 0.7 12.5 0.2 0.0 0.5 0.2 0.0 0.3 1.1 0.0 0.0 0.0 0.0 1.1 5.0 4.2 1.9 0.7 0.9 3.5 1.5 0.8 1.4 5.7 3.1 5.6 0.0 0.0 0.0 0.0 0.2 0.4 0.0 0.0 0.0
0.0 0.0 0.0 0.0 0.0 0.0 0.0 0.0 0.0 0.0 10.4 0.5 0.0 0.0 0.1 0.1 0.1 2.5 0.1 0.8 0.0 1.4 4.7 4.0 1.3 2.8 1.6 2.7 1.9 3.3 2.6 1.7 1.6 3.2 8.5 2.2 0.0 0.0 0.1 0.0 0.0 0.0 0.0 0.0
0.0 0.0 0.0 0.0 0.0 0.0 0.0 0.0 0.0 0.0 1.3 0.9 0.0 0.0 0.0 0.0 0.0 0.0 0.7 0.7 0.1 1.4 3.5 2.2 4.4 5.7 3.3 2.3 3.9 0.8 3.8 3.6 4.2 2.8 0.9 0.0 0.0 0.0 0.0 0.0 0.0 0.0 0.0 0.0
0.0 0.0 0.0 0.0 0.0 0.0 0.0 0.0 0.0 0.0 6.2 2.8 0.8 0.2 0.0 0.0 0.0 0.0 1.9 0.1 0.0 0.0 0.0 2.9 4.6 5.7 1.7 3.1 0.8 0.1 1.1 1.2 1.7 1.8 0.0 0.0 0.0 0.0 0.0 0.0 0.0 0.0 0.0 0.0
0.0 0.0 0.0 0.0 0.0 0.0 0.0 0.0 0.0 0.0 6.3 16.7 1.2 0.0 0.0 0.0 0.0 0.0 0.0 0.0 0.0 0.0 0.4 5.4 8.0 5.4 0.4 0.4 0.3 0.1 0.1 0.0 0.0 0.0 0.0 0.0 0.0 0.0 0.0 0.0 0.0 0.0 0.0 0.0
0.0 0.0 0.0 0.0 0.0 0.0 0.0 0.0 0.0 0.0 2.2 18.9 4.0 0.4 0.1 0.0 0.0 0.0 0.0 0.0 0.0 0.6 3.3 7.8 6.2 0.9 1.6 1.7 1.5 0.4 0.1 0.3 0.5 0.1 0.0 0.2 0.0 0.0 0.0 0.0 0.2 0.1 0.0 0.0
0.0 0.0 0.0 0.0 0.0 0.0 0.0 2.5 0.0 0.0 0.0 8.7 18.4 0.4 0.3 0.0 0.0 0.0 0.0 0.0 0.0 1.5 3.3 5.4 1.0 0.1 1.0 6.7 2.3 0.0 0.0 0.0 0.0 0.2 0.0 0.0 0.0 0.1 0.0 0.7 0.4 0.2 0.1 0.8
0.0 0.0 0.0 0.0 0.0 0.0 0.2 3.4 0.0 0.0 0.0 17.2 34.6 17.4 2.7 0.9 0.8 1.4 1.6 1.2 1.3 3.1 7.0 6.7 2.6 1.6 3.2 9.1 4.1 0.4 0.0 0.0 0.0 0.0 0.0 1.0 0.3 0.2 1.1 0.6 0.3 1.6 1.4 0.8
0.0 0.0 0.0 0.0 0.0 0.0 0.0 0.0 0.0 0.0 1.7 13.3 60.5 36.1 10.2 1.3 2.3 5.7 4.8 5.8 4.3 10.8 8.0 6.4 3.2 4.4 9.8 15.7 1.2 0.2 0.3 0.8 1.7 1.8 1.2 2.5 2.4 2.7 2.7 0.8 2.1 1.8 1.9 1.7
0.0 0.0 0.0 0.0 0.0 0.1 0.0 0.0 0.0 0.0 0.4 54.5 42.0 26.2 12.3 3.1 2.7 4.0 7.6 9.0 21.9 14.3 17.2 7.9 6.0 17.4 25.7 11.1 2.9 0.8 2.0 3.8 3.1 4.1 3.4 2.3 2.3 3.2 3.5 2.6 2.2 3.5 5.7 4.8
0.0 0.0 1.4 11.2 2.1 0.0 0.0 0.0 8.6 21.7 32.0 32.5 29.5 11.7 12.0 4.9 6.3 11.3 16.3 20.2 27.3 35.5 20.4 13.8 24.3 19.3 10.6 6.1 6.3 6.2 6.3 5.9 6.0 9.0 7.0 4.6 6.4 5.7 6.1 6.9 7.2 6.5 7.2 7.4
1.8 13.1 15.5 1.7 0.0 0.8 7.8 34.9 39.8 32.7 35.8 16.1 11.6 7.7 9.7 5.7 16.9 19.9 19.2 30.0 27.8 35.0 18.5 18.2 23.8 19.5 9.7 8.0 10.1 10.1 9.2 8.6 8.4 7.8 8.1 9.8 11.7 12.4 10.5 9.9 10.8 9.6 9.3 9.0
1.8 1.7 3.2 5.5 20.5 35.4 44.9 42.5 21.9 17.0 15.5 12.7 10.1 6.9 7.4 11.8 9.8 22.4 25.4 27.4 24.5 26.5 10.6 22.0 20.4 11.0 9.2 11.9 12.5 12.4 11.6 10.8 10.3 9.7 10.6 10.1 10.2 10.6 10.7 11.1 11.4 9.8 8.3 7.2
2.3 18.9 35.0 33.8 37.7 54.3 40.9 25.0 16.4 15.7 10.1 10.9 9.8 12.0 11.9 14.7 17.0 27.1 26.0 31.0 23.1 11.2 17.7 16.1 13.2 9.9 10.6 12.5 14.1 14.6 13.4 11.7 10.8 10.9 9.2 8.7 9.2 9.2 8.1 8.8 6.5 5.7 5.5 5.5
21.8 39.3 47.0 31.2 29.7 16.3 13.7 10.6 9.8 9.1 11.3 13.2 14.7 16.3 16.7 14.8 23.8 20.5 28.9 18.5 11.5 23.7 19.1 15.1 12.3 12.2 11.4 10.8 11.7 12.0 12.4 11.9 10.9 12.7 11.6 9.9 8.4 7.5 6.8 6.6 7.0 6.3 5.7 5.1
39.7 31.2 30.0 17.3 9.8 8.3 10.0 9.7 9.7 11.2 13.1 17.8 19.6 19.2 17.8 21.8 27.6 18.0 13.3 21.0 21.1 18.0 15.9 14.0 14.1 13.9 13.1 12.8 12.0 10.9 10.5 10.5 9.9 9.4 9.4 9.9 7.2 5.3 4.8 5.7 5.5 5.0 4.7 3.8
34.1 27.7 15.4 6.5 5.8 6.3 4.9 7.6 8.8 9.4 12.5 13.0 17.4 18.8 22.0 21.5 18.6 19.8 16.5 15.9 17.0 17.3 17.1 16.1 14.4 14.2 13.4 13.7 12.7 12.2 11.7 11.6 11.6 10.4 10.7 9.1 9.5 10.9 10.5 7.2 6.0 5.3 4.8 3.9
38.3 16.5 8.8 8.6 5.4 5.5 5.7 6.1 6.2 5.3 9.1 12.1 13.8 21.8 16.6 15.6 18.2 15.4 12.0 16.5 17.5 15.3 13.1 11.7 11.8 11.0 11.0 10.9 9.6 8.9 7.3 6.8 7.2 8.4 9.7 11.2 11.5 11.0 9.4 10.0 11.7 10.2 9.7 8.8

GFSNW_prec_kuchsnow_285.txt.gz
Snowfall_Accumulation
0.0 0.0 0.0 0.0 0.0 0.0 0.0 0.0 6.0 0.0 0.0 2.0 4.3 5.8 2.8 0.0 0.0 0.0 0.2 0.1 0.6 0.9 0.3 1.5 0.0 0.2 0.0 0.0 0.0 0.0 0.0 0.3 1.2 0.2 0.0 0.0 0.0 0.0 0.0 3.4 1.3 2.6 4.8 3.2
0.0 0.0 0.0 0.0 0.0 0.0 0.0 2.8 1.0 0.0 0.0 7.5 3.5 0.4 0.0 0.9 1.0 0.4 1.6 1.5 1.5 1.3 0.4 4.0 0.0 3.0 1.2 0.3 0.0 0.0 0.0 0.7 1.5 1.4 0.3 0.0 0.4 0.0 0.0 0.2 0.8 3.4 5.5 0.5
0.0 0.0 0.0 0.0 0.0 0.0 0.0 2.9 7.8 0.0 0.0 0.0 2.8 4.1 1.1 0.7 0.0 1.1 1.1 1.4 0.0 2.2 1.0 0.0 4.4 3.4 2.8 1.6 0.5 0.0 0.0 0.6 0.9 1.2 2.0 1.9 2.5 0.2 0.1 1.2 6.7 0.6 0.5 0.3
0.0 0.0 0.0 0.0 0.0 0.0 0.0 3.4 3.1 0.0 5.2 0.7 2.4 2.8 2.7 1.6 2.2 0.2 0.9 1.8 1.6 3.4 3.9 1.1 1.0 0.4 0.2 0.0 1.0 0.2 0.0 2.1 0.3 0.4 0.3 2.6 1.7 0.5 0.4 2.7 0.4 2.1 0.0 0.0
0.0 0.0 0.0 0.0 0.0 0.0 0.0 3.9 2.4 0.7 1.8 0.4 1.0 1.5 1.4 0.8 1.1 1.5 1.8 2.0 1.1 0.9 3.0 2.5 2.9 2.1 0.0 1.9 1.4 1.2 0.3 3.2 2.2 2.7 0.7 1.6 2.0 0.2 0.2 0.2 0.0 0.0 0.0 0.0
0.0 0.0 0.0 0.0 0.0 0.0 0.0 0.8 0.0 3.3 1.6 0.4 1.2 0.9 0.2 1.0 0.4 0.1 0.0 0.5 0.7 0.5 0.2 0.0 0.0 0.0 0.0 0.4 0.6 0.4 1.7 3.6 5.1 5.5 0.2 1.4 3.0 0.3 0.1 0.0 0.0 0.0 0.1 0.0
0.0 0.0 0.0 0.0 0.0 0.0 0.0 0.0 1.0 10.4 7.0 0.5 0.3 0.0 0.0 0.4 0.0 1.0 0.0 0.0 0.5 0.0 0.0 0.0 0.0 0.0 0.0 0.0 0.0 0.0 1.2 3.3 5.0 9.3 2.2 7.6 0.0 0.0 0.0 0.0 0.1 0.2 0.1 0.0
0.0 0.0 0.0 0.0 0.0 0.0 0.0 0.0 1.4 9.7 9.1 0.2 0.1 0.0 0.1 0.0 0.0 0.2 0.1 0.0 0.0 0.0 0.0 0.8 2.0 1.6 1.2 0.6 0.0 0.0 0.0 1.1 5.5 6.9 2.7 0.0 0.0 0.0 0.0 0.0 0.3 0.0 0.1 0.0
0.0 0.0 0.0 0.0 0.0 0.0 0.0 0.0 0.0 5.2 12.0 1.5 0.0 0.0 0.0 0.8 0.8 0.1 0.0 0.0 0.0 0.0 0.6 2.8 6.3 2.3 0.5 1.7 0.6 0.0 0.2 0.9 4.2 5.5 7.6 3.0 0.0 0.0 0.0 0.0 0.6 0.0 0.0 0.0
0.0 0.0 0.0 0.0 0.0 0.0 0.0 0.0 0.0 0.9 13.7 0.2 0.0 0.5 0.2 0.0 0.3 1.1 0.0 0.0 0.0 0.0 1.1 5.0 4.2 1.9 0.9 0.9 3.5 1.5 0.8 2.7 6.8 3.5 5.8 0.0 0.0 0.0 0.0 0.2 0.4 0.0 0.0 0.0
0.0 0.0 0.0 0.0 0.0 0.0 0.0 0.0 0.0 0.0 11.3 0.6 0.0 0.0 0.1 0.1 0.1 2.5 0.1 1.0 0.0 1.4 4.7 5.6 1.3 3.3 1.6 2.7 1.9 4.3 4.5 6.1 5.0 4.8 9.6 2.9 0.1 0.0 0.4 0.1 0.0 0.0 0.0 0.0
0.0 0.0 0.0 0.0 0.0 0.0 0.0 0.0 0.0 0.0 2.1 0.9 0.0 0.0 0.0 0.0 0.0 0.0 0.7 0.7 0.1 1.4 3.5 2.2 4.4 5.7 3.3 2.3 3.9 0.9 5.5 6.7 8.5 5.6 4.3 1.4 0.7 0.9 0.7 0.4 0.1 0.0 0.0 0.0
0.0 0.0 0.0 0.0 0.0 0.0 0.0 0.0 0.0 0.0 6.2 2.8 0.9 0.2 0.0 0.0 0.0 0.0 1.9 0.1 0.0 0.0 0.0 2.9 5.0 6.0 1.7 3.3 1.1 0.3 1.7 1.2 1.7 2.0 0.0 0.0 1.1 1.0 0.9 1.1 0.9 0.4 0.0 0.0
0.0 0.0 0.0 0.0 0.0 0.0 0.0 0.0 0.0 0.0 6.3 17.4 1.2 0.0 0.0 0.0 0.0 0.0 0.0 0.0 0.0 0.0 0.4 5.6 8.2 5.5 0.4 0.4 0.4 0.1 0.3 0.2 0.2 0.1 0.1 0.0 0.3 0.5 1.1 0.9 0.5 0.5 0.2 0.0
0.0 0.0 0.0 0.0 0.0 0.0 0.0 0.0 0.0 0.0 2.2 18.9 4.0 0.4 0.1 0.0 0.0 0.0 0.0 0.0 0.0 0.6 3.9 8.1 6.3 0.9 1.7 1.7 1.6 0.9 0.5 1.0 1.0 0.3 0.0 0.7 0.0 0.0 0.0 0.2 0.3 0.1 0.0 0.1
0.0 0.0 0.0 0.0 0.0 0.0 0.0 2.5 0.0 0.0 0.0 8.7 18.4 0.4 0.3 0.0 0.0 0.0 0.0 0.0 0.0 1.9 3.9 5.6 1.0 0.1 1.0 6.7 2.8 0.3 0.0 0.0 0.1 0.3 0.0 0.1 0.0 0.1 0.0 0.7 0.4 0.2 0.1 1.0
0.0 0.0 0.0 0.0 0.0 0.0 0.2 3.4 0.0 0.0 0.0 17.2 34.6 17.4 2.7 0.9 0.8 1.4 1.6 1.2 1.3 3.4 7.5 7.0 2.6 2.0 4.0 11.6 5.9 0.4 0.0 0.0 0.0 0.0 0.0 1.0 0.3 0.2 1.1 0.7 0.3 1.6 1.6 1.1
0.0 0.0 0.0 0.0 0.0 0.0 0.0 0.0 0.0 0.0 1.7 13.4 60.5 36.1 10.2 1.3 2.3 5.7 4.8 5.8 4.3 11.3 9.1 8.0 5.0 6.3 9.8 17.4 1.2 0.2 0.3 0.8 1.7 1.8 1.2 2.5 2.4 2.7 2.7 0.8 2.1 1.8 2.1 2.1
0.0 0.0 0.0 0.0 0.0 0.1 0.0 0.0 0.0 0.0 0.4 54.7 42.2 26.8 12.5 3.1 2.7 4.0 7.6 9.0 22.5 15.8 19.0 9.8 7.5 17.4 26.5 11.9 3.3 1.0 2.1 4.1 3.3 4.1 3.4 2.3 2.3 3.2 3.5 2.7 2.2 3.6 6.0 4.8
0.0 0.0 1.4 11.2 2.1 0.0 0.0 0.0 8.6 21.9 32.5 33.2 30.3 11.7 12.0 4.9 6.3 11.3 16.3 20.2 28.3 37.8 21.1 14.3 24.3 20.3 10.6 6.8 6.8 6.5 6.6 6.2 6.3 9.3 7.3 4.6 6.4 5.8 6.3 7.1 7.4 6.8 7.9 8.5
1.8 13.1 15.5 1.7 0.0 0.8 7.8 34.9 39.8 32.7 35.8 16.1 11.8 7.7 9.7 5.7 17.0 19.9 19.2 30.4 28.4 35.4 18.8 18.2 23.8 19.5 10.1 8.0 10.4 10.2 9.4 8.9 8.8 8.4 8.7 10.4 12.2 12.8 10.9 10.4 11.4 10.6 10.4 10.4
1.8 1.7 3.2 5.5 20.5 35.4 44.9 42.5 21.9 17.0 15.5 12.7 10.1 6.9 7.4 11.8 10.0 23.0 26.1 28.0 24.5 26.9 10.6 22.0 20.4 11.0 9.7 12.3 13.0 12.9 12.3 11.5 11.0 10.4 11.4 10.9 10.9 11.3 11.3 11.8 12.3 10.9 9.7 8.8
2.3 18.9 35.0 33.8 37.7 54.3 40.9 25.0 16.4 15.7 10.1 10.9 9.9 12.0 11.9 14.7 17.4 28.1 26.3 31.1 23.3 11.2 17.7 16.1 13.6 10.3 11.1 13.0 14.6 15.3 14.2 12.6 11.8 12.0 10.5 10.0 10.5 10.2 9.1 9.8 7.8 7.0 6.8 7.3
21.8 39.3 47.0 31.2 29.7 16.3 13.7 10.6 9.8 9.1 11.3 13.2 14.7 16.3 16.7 14.8 23.8 20.5 28.9 18.7 11.5 23.7 19.1 15.3 12.6 12.7 11.9 11.4 12.3 12.7 13.2 13.0 12.0 13.9 13.1 11.4 10.0 9.0 8.1 7.7 8.2 7.2 6.8 6.7
39.7 31.2 30.0 17.3 9.8 8.3 10.0 9.7 9.7 11.2 13.1 17.8 19.6 19.3 18.0 21.8 27.6 18.0 13.3 21.0 21.1 18.0 15.9 14.2 14.4 14.3 13.7 13.3 12.5 11.4 10.5 11.4 11.0 10.8 10.8 11.5 8.9 6.8 6.1 7.2 6.7 6.0 5.8 5.1
34.1 27.7 15.5 6.5 5.9 6.3 4.9 7.6 8.8 9.4 12.5 13.1 17.5 18.8 22.0 21.5 18.6 19.8 16.5 15.9 17.0 17.5 17.4 16.5 14.7 14.5 13.8 14.1 13.2 12.7 12.4 12.4 12.6 11.4 11.8 10.2 10.5 11.8 11.6 8.2 6.9 6.3 5.8 4.9
38.3 16.6 8.8 8.9 5.6 5.6 5.7 6.1 6.2 5.3 9.1 12.1 13.8 21.8 16.6 15.6 18.2 15.4 12.0 16.5 17.6 15.5 13.3 12.1 12.2 11.4 11.4 10.9 9.6 8.9 7.7 7.2 7.8 9.0 10.3 11.7 12.0 11.4 9.8 10.4 12.1 10.6 9.9 9.1

GFSNW_prec_kuchsnow_288.txt.gz
Snowfall_Accumulation
0.0 0.0 0.0 0.0 0.0 0.0 0.0 0.0 6.6 0.0 0.0 2.0 4.3 5.8 2.8 0.0 0.0 0.0 0.2 0.1 0.6 0.9 0.3 1.5 0.0 0.2 0.0 0.7 1.7 0.8 0.0 0.3 1.2 0.2 0.0 0.0 0.0 0.0 0.0 3.4 1.3 2.6 4.8 3.2
0.0 0.0 0.0 0.0 0.0 0.0 0.0 2.8 1.2 0.0 0.0 7.5 3.5 0.4 0.0 0.9 1.0 0.4 1.6 1.5 1.6 1.3 0.4 4.0 0.0 3.0 1.2 0.3 1.2 2.0 0.6 1.4 1.5 1.4 0.3 0.0 0.4 0.0 0.0 0.2 0.8 3.4 5.5 0.5
0.0 0.0 0.0 0.0 0.0 0.0 0.0 3.0 7.8 0.0 0.0 0.0 2.8 4.1 1.1 0.7 0.0 1.1 1.1 1.4 0.0 2.2 1.0 0.0 4.4 3.4 2.8 1.6 1.1 0.6 1.4 1.7 1.0 1.2 2.0 1.9 2.5 0.2 0.1 1.2 6.7 0.6 0.5 0.3
0.0 0.0 0.0 0.0 0.0 0.0 0.0 3.4 3.1 0.0 5.4 0.7 2.4 3.1 3.0 1.7 2.2 0.2 0.9 1.8 1.6 3.4 3.9 1.1 1.0 0.4 0.2 0.0 1.0 1.7 2.0 3.1 0.3 0.4 0.3 2.6 1.7 0.5 0.4 2.7 0.4 2.1 0.0 0.0
0.0 0.0 0.0 0.0 0.0 0.0 0.0 3.9 2.4 0.7 2.1 0.4 1.0 1.5 2.2 0.8 1.1 1.5 1.8 2.0 1.1 0.9 3.0 2.5 2.9 2.1 0.0 1.9 1.4 4.8 3.1 4.6 2.2 2.8 0.7 1.6 2.0 0.2 0.2 0.2 0.0 0.0 0.0 0.0
0.0 0.0 0.0 0.0 0.0 0.0 0.0 1.0 0.0 4.0 1.6 0.4 1.2 1.3 0.5 1.0 0.4 0.1 0.0 0.5 0.7 0.5 0.2 0.0 0.0 0.0 0.0 0.4 0.6 0.4 5.7 6.8 7.0 6.2 0.3 1.4 3.3 0.3 0.1 0.0 0.0 0.0 0.1 0.0
0.0 0.0 0.0 0.0 0.0 0.0 0.0 0.0 1.0 10.4 7.0 0.7 0.3 0.0 0.4 0.5 0.0 1.0 0.0 0.0 0.5 0.0 0.0 0.0 0.0 0.0 0.0 0.0 0.0 0.0 2.1 5.4 7.1 11.8 3.8 9.3 0.0 0.0 0.0 0.0 0.1 0.2 0.1 0.0
0.0 0.0 0.0 0.0 0.0 0.0 0.0 0.0 1.4 10.2 9.7 0.2 0.1 0.5 0.4 0.0 0.0 0.2 0.1 0.0 0.0 0.0 0.0 0.8 2.0 1.6 1.2 0.6 0.0 0.1 0.5 2.2 7.2 7.9 4.0 0.9 0.1 0.1 0.0 0.0 0.3 0.0 0.1 0.0
0.0 0.0 0.0 0.0 0.0 0.0 0.0 0.0 0.0 5.4 12.7 1.5 0.2 0.4 0.0 0.9 0.8 0.1 0.0 0.0 0.0 0.0 0.6 2.8 6.3 2.3 0.5 1.8 0.6 0.0 0.2 1.7 6.6 7.7 9.7 4.1 0.7 0.1 0.0 0.0 0.6 0.0 0.0 0.0
0.0 0.0 0.0 0.0 0.0 0.0 0.0 0.0 0.0 1.0 14.1 0.2 0.0 0.7 0.3 0.0 0.3 1.1 0.0 0.0 0.0 0.0 1.1 5.0 4.8 2.6 1.1 0.9 3.5 1.5 0.8 2.7 7.9 4.8 7.8 1.7 0.7 0.2 0.0 1.1 1.2 0.2 0.0 0.0
0.0 0.0 0.0 0.0 0.0 0.0 0.0 0.0 0.0 0.0 11.7 0.6 0.0 0.0 0.1 0.2 0.1 2.6 0.1 1.1 0.0 1.4 4.7 5.6 1.3 3.3 1.6 2.7 1.9 5.1 5.1 6.5 5.0 4.8 11.2 5.2 0.9 0.7 2.4 2.2 0.6 0.4 0.1 0.0
0.0 0.0 0.0 0.0 0.0 0.0 0.0 0.0 0.0 0.0 2.2 0.9 0.0 0.0 0.0 0.0 0.0 0.0 0.8 0.7 0.1 1.5 3.5 2.2 4.4 5.7 3.5 2.3 3.9 0.9 7.1 7.9 9.5 6.3 6.4 3.9 2.5 3.8 4.0 3.6 2.0 1.2 0.5 0.1
0.0 0.0 0.0 0.0 0.0 0.0 0.0 0.0 0.0 0.0 6.2 2.8 0.9 0.2 0.0 0.0 0.0 0.0 2.0 0.1 0.0 0.0 0.0 2.9 5.0 6.3 2.1 3.3 1.1 0.6 1.7 1.2 2.0 2.0 0.9 0.5 1.9 1.0 0.9 1.1 2.7 1.9 1.0 0.6
0.0 0.0 0.0 0.0 0.0 0.0 0.0 0.0 0.0 0.0 6.3 17.6 1.2 0.0 0.0 0.0 0.0 0.0 0.0 0.0 0.0 0.0 0.4 6.0 8.5 5.6 0.4 0.4 0.5 0.1 0.5 0.2 0.2 0.1 0.1 0.2 0.3 0.5 1.1 0.9 0.5 0.5 0.2 1.1
0.0 0.0 0.0 0.0 0.0 0.0 0.0 0.0 0.0 0.0 2.2 18.9 4.0 0.4 0.1 0.0 0.0 0.0 0.0 0.0 0.0 0.6 4.7 8.7 6.4 0.9 1.7 1.7 2.0 1.6 0.9 1.4 1.3 0.3 0.0 0.7 0.0 0.0 0.0 0.2 0.3 0.1 0.0 1.3
0.0 0.0 0.0 0.0 0.0 0.0 0.0 2.5 0.0 0.0 0.0 8.8 18.4 0.4 0.3 0.0 0.0 0.0 0.0 0.0 0.0 1.9 4.4 6.1 1.2 0.5 1.4 7.1 3.4 0.8 0.3 0.0 0.5 0.8 0.0 0.3 0.0 0.1 0.0 0.7 0.4 0.2 0.3 1.8
0.0 0.0 0.0 0.0 0.0 0.0 0.2 3.4 0.0 0.0 0.0 17.4 34.6 17.4 2.7 0.9 0.8 1.4 1.6 1.2 1.3 3.5 8.2 8.1 4.3 4.2 6.4 13.0 6.7 0.4 0.0 0.0 0.0 0.0 0.0 1.0 0.3 0.2 1.1 0.7 0.3 1.7 1.8 1.5
0.0 0.0 0.0 0.0 0.0 0.0 0.0 0.0 0.0 0.0 1.7 13.4 60.5 36.1 10.2 1.3 2.3 5.7 4.8 5.8 4.6 13.0 11.1 9.4 5.8 6.3 9.8 18.3 1.2 0.2 0.3 0.8 1.7 1.8 1.2 2.5 2.4 2.7 2.7 0.8 2.1 1.9 2.2 2.4
0.0 0.0 0.0 0.0 0.0 0.1 0.0 0.0 0.0 0.0 0.4 54.9 42.5 27.2 12.5 3.1 2.7 4.0 7.6 9.0 23.7 15.8 19.0 9.8 7.5 17.4 26.5 12.3 3.7 1.0 2.1 4.4 3.6 4.1 3.4 2.3 2.3 3.2 3.5 2.7 2.3 3.7 6.2 5.0
0.0 0.0 1.4 11.2 2.1 0.0 0.0 0.0 8.6 21.9 32.5 33.2 30.3 11.7 12.0 4.9 6.3 11.3 16.3 20.2 29.3 38.3 21.7 14.3 24.3 20.5 11.0 7.3 7.3 7.0 6.8 6.4 6.5 9.6 7.6 4.6 6.4 5.8 6.3 7.3 7.7 7.0 8.1 8.9
1.8 13.1 15.5 1.7 0.0 0.8 7.8 34.9 39.8 32.7 35.8 16.1 11.8 7.7 9.7 5.7 17.1 19.9 19.2 31.1 28.8 35.6 19.0 18.2 23.8 19.5 10.2 8.1 10.5 10.2 9.4 9.2 9.2 8.9 9.3 10.9 12.7 13.2 11.2 10.7 11.8 10.8 10.8 10.9
1.8 1.7 3.2 5.5 20.5 35.4 44.9 42.5 21.9 17.0 15.5 12.7 10.1 6.9 7.4 11.8 10.0 23.5 26.7 28.4 24.5 27.0 10.6 22.0 20.4 11.0 9.7 12.6 13.3 13.2 12.7 12.0 11.5 10.9 11.9 11.5 11.4 11.9 11.8 12.3 12.8 11.5 10.3 9.4
2.3 18.9 35.0 33.8 37.7 54.3 40.9 25.0 16.4 15.7 10.1 11.0 9.9 12.0 11.9 14.7 17.5 28.5 26.3 31.1 23.3 11.2 17.7 16.1 13.7 10.3 11.1 13.3 14.9 15.7 14.9 13.4 12.6 12.7 11.3 10.9 11.3 10.9 9.7 10.5 8.7 7.9 7.7 8.4
21.8 39.3 47.0 31.2 29.7 16.3 13.8 10.7 9.8 9.1 11.3 13.2 14.7 16.3 16.7 14.8 24.0 20.6 28.9 18.7 11.5 23.7 19.1 15.3 12.6 12.7 12.2 11.6 12.7 13.0 13.6 13.5 12.7 14.9 14.0 12.2 10.6 9.8 8.8 8.6 9.3 8.3 7.9 8.0
39.7 31.2 30.0 17.3 10.3 8.6 10.1 9.7 9.7 11.2 13.1 17.8 19.6 19.4 18.1 21.8 27.6 18.0 13.3 21.0 21.1 18.0 15.9 14.2 14.6 14.5 13.9 13.6 12.7 11.6 10.6 11.5 11.3 11.2 11.3 12.0 9.6 7.4 6.8 8.2 7.8 7.1 6.8 6.1
34.1 27.7 15.5 6.5 6.1 6.3 4.9 7.6 8.8 9.4 12.5 13.2 17.6 18.8 22.0 21.5 18.6 19.8 16.5 15.9 17.0 17.6 17.6 16.6 14.9 14.7 14.1 14.3 13.4 12.9 12.5 12.5 12.7 11.5 12.0 10.5 10.9 12.4 12.4 9.1 7.9 7.4 6.8 5.8
38.3 16.6 8.8 8.9 5.7 5.6 5.7 6.1 6.2 5.3 9.1 12.1 13.8 21.8 16.6 15.6 18.2 15.4 12.1 16.6 17.9 15.8 13.5 12.2 12.4 11.6 11.6 11.0 9.7 9.0 7.7 7.2 7.8 9.0 10.3 11.7 12.3 11.8 10.3 10.9 12.8 11.2 10.6 9.7